Weather History for Kansas City, MO

Change the Weather History Date:

Tuesday, July 23, 2013

  Actual Average Record
Temperature  
Mean Temperature 81 °F -  
Max Temperature 87 °F 87 °F 105 °F (2012)
Min Temperature 73 °F 70 °F 60 °F (2003)
Cooling Degree Days 16    
Growing Degree Days 31 (Base 50)    
Moisture  
Dew Point 67 °F    
Average Humidity 65    
Maximum Humidity 79    
Minimum Humidity 51    
Precipitation  
Precipitation 0.00 in - - ()
Sea Level Pressure  
Sea Level Pressure 29.85 in    
Wind  
Wind Speed 6 mph (NE)    
Max Wind Speed 17 mph    
Max Gust Speed 22 mph    
Visibility 10 miles    
Events      
Averages and records for this station are not official NWS values.
T = Trace of Precipitation, MM = Missing Value Source: NWS Daily Summary

Daily Weather History Graph

Daily Weather History Graph

Search for Another Location

Airport:

Trip Planner

Search our weather history database for the weather conditions in past years. The results will help you decide how hot, cold, wet, or windy it might be!

Date:

Astronomy

Jul. 23, 2013 Rise Set
Actual Time 6:11 AM CDT 8:38 PM CDT
Civil Twilight 5:40 AM CDT 9:08 PM CDT
Nautical Twilight 5:02 AM CDT 9:46 PM CDT
Astronomical Twilight 4:20 AM CDT 10:28 PM CDT
Moon 9:07 PM CDT (7/23) 7:19 AM CDT (7/23)
Length of Visible Light 15h 27m
Length of Day
14h 26m
Full, 99% of the Moon is Illuminated
Jul 23
Full
Jul 29
Last Quarter
Aug 6
New
Aug 14
First Quarter
Aug 20
Full

Hourly Weather History & Observations

Time (CDT) Temp. Heat Index Dew Point Humidity Pressure Visibility Wind Dir Wind Speed Gust Speed Precip Events Conditions
12:54 AM 81.0 °F 83.3 °F 66.9 °F 62% 29.81 in 10.0 mi SSW 3.5 mph - N/A   Clear
1:54 AM 79.0 °F - 68.0 °F 69% 29.84 in 10.0 mi East 3.5 mph - N/A   Clear
2:54 AM 79.0 °F - 68.0 °F 69% 29.80 in 10.0 mi SW 4.6 mph - N/A   Clear
3:54 AM 78.1 °F - 68.0 °F 71% 29.79 in 10.0 mi Calm Calm - N/A   Clear
4:54 AM 77.0 °F - 69.1 °F 76% 29.78 in 10.0 mi Calm Calm - N/A   Clear
5:54 AM 75.9 °F - 69.1 °F 79% 29.78 in 10.0 mi SW 4.6 mph - N/A   Clear
6:54 AM 77.0 °F - 70.0 °F 79% 29.79 in 10.0 mi SW 6.9 mph - N/A   Clear
7:54 AM 79.0 °F - 71.1 °F 77% 29.82 in 10.0 mi North 4.6 mph - N/A   Clear
8:54 AM 82.0 °F 86.7 °F 72.0 °F 71% 29.87 in 10.0 mi NNW 5.8 mph - N/A   Scattered Clouds
9:54 AM 81.0 °F 84.9 °F 71.1 °F 72% 29.88 in 10.0 mi North 9.2 mph - N/A   Partly Cloudy
10:12 AM 80.6 °F 83.9 °F 69.8 °F 70% 29.91 in 10.0 mi North 13.8 mph - N/A   Mostly Cloudy
10:39 AM 80.6 °F 82.7 °F 66.2 °F 61% 29.89 in 10.0 mi NE 17.3 mph - N/A   Scattered Clouds
10:54 AM 79.0 °F - 64.9 °F 62% 29.88 in 10.0 mi NE 12.7 mph 21.9 mph N/A   Scattered Clouds
11:54 AM 80.1 °F 81.9 °F 64.9 °F 60% 29.89 in 10.0 mi ENE 12.7 mph - N/A   Clear
12:54 PM 80.1 °F 82.3 °F 66.9 °F 64% 29.87 in 10.0 mi ENE 8.1 mph - N/A   Clear
1:54 PM 82.0 °F 84.5 °F 66.9 °F 60% 29.86 in 10.0 mi ENE 4.6 mph - N/A   Scattered Clouds
2:54 PM 84.9 °F 87.6 °F 66.9 °F 55% 29.87 in 10.0 mi East 9.2 mph - N/A   Clear
3:54 PM 84.9 °F 88.2 °F 68.0 °F 57% 29.87 in 10.0 mi East 6.9 mph - N/A   Clear
4:54 PM 87.1 °F 90.6 °F 68.0 °F 53% 29.83 in 10.0 mi NE 5.8 mph - N/A   Clear
5:54 PM 86.0 °F 89.4 °F 68.0 °F 55% 29.83 in 10.0 mi NNE 11.5 mph - N/A   Clear
6:54 PM 84.9 °F 86.6 °F 64.9 °F 51% 29.83 in 10.0 mi NE 10.4 mph 20.7 mph N/A   Clear
7:54 PM 82.9 °F 85.4 °F 66.9 °F 58% 29.85 in 10.0 mi NNE 11.5 mph - N/A   Clear
8:54 PM 80.1 °F 81.9 °F 64.9 °F 60% 29.87 in 10.0 mi NE 9.2 mph - N/A   Clear
9:54 PM 78.1 °F - 64.0 °F 62% 29.88 in 10.0 mi ENE 6.9 mph - N/A   Clear
10:54 PM 75.0 °F - 62.1 °F 64% 29.92 in 10.0 mi NE 11.5 mph - N/A   Clear
11:54 PM 73.0 °F - 59.0 °F 61% 29.91 in 10.0 mi NE 12.7 mph - N/A   Clear